Regional Weather Roundup
Issued by NWS Charleston, SC

Current Version | Previous Version | Graphics & Text | Print | Product List | Glossary On
Versions: 1 2 3 4 5 6 7 8 9 10 11 12 13 14 15 16 17 18 19 20 21 22 23 24 25 26 27 28 29 30 31 32 33 34 35 36 37 38 39 40 41 42 43 44 45 46 47 48 49 50
000 ASUS42 KCHS 301010 RWRCHS REGIONAL WEATHER ROUNDUP NATIONAL WEATHER SERVICE CHARLESTON SC 600 AM EDT WED JUL 30 2014 NOTE: "FAIR" INDICATES FEW OR NO CLOUDS BELOW 12,000 FEET WITH NO SIGNIFICANT WEATHER AND/OR OBSTRUCTIONS TO VISIBILITY. NOT ALL STATIONS ARE QUALITY CONTROLLED BY THE NATIONAL WEATHER SERVICE. USE DATA WITH CAUTION...ESPECIALLY DEWPOINT OBSERVATIONS. SCZ027-030-031-034>040-042>050-301100- ...SOUTH CAROLINA... CITY SKY/WX TMP DP RH WIND PRES REMARKS N CHARLESTON PTCLDY 73 70 90 N3 29.97R WATERFRONT PRK N/A 79 N/A N/A N5 N/A FORT JOHNSON NOT AVBL MOUNT PLEASANT LGT RAIN 72 70 94 CALM 29.96R JOHNS ISLAND SUNNY 72 68 88 CALM 29.96R PINOPOLIS N/A 77 72 83 E5 29.87R MONCKS CORNER N/A 70 70 100 CALM 29.97R SUMMERVILLE FAIR 70 70 100 CALM 29.98R BEAUFORT MCAS CLEAR 73 71 93 NE5 29.96R FOG BEAUFORT ARPT FAIR 73 73 100 CALM 29.95R HILTON HEAD IS NOT AVBL GEORGETOWN NOT AVBL WALTERBORO SUNNY 68 N/A N/A CALM 29.98R ORANGEBURG PTCLDY 72 62 71 E3 29.98R BARNWELL FAIR 68 64 88 N6 29.98R AIKEN FAIR 68 61 77 NE8 30.04R MANNING PTSUNNY 70 N/A N/A CALM 29.98R KINGSTREE NOT AVBL COLUMBIA PTCLDY 72 58 61 VRB5 30.00R SUMTER PTCLDY 67 62 85 N5 29.99R FLORENCE CLEAR 66 62 87 CALM 29.99R MYRTLE BEACH CLEAR 72 66 83 N8 29.98R N MYRTLE BEACH CLEAR 69 66 90 NE5 29.98R $$ GAZ063-065-086>088-099>101-113>116-118-119-134-136>141-150-301100- ...GEORGIA... CITY SKY/WX TMP DP RH WIND PRES REMARKS SAVANNAH ARPT MOCLDY 73 65 75 CALM 29.96R HUNTER AAF PTCLDY 72 68 87 NW5 29.93R FORT STEWART MOCLDY 72 64 75 N5 29.95R STATESBORO NOT AVBL SYLVANIA SUNNY 67 67 100 CALM 29.98R CLAXTON FAIR N/A N/A N/A CALM 29.97S THOMSON CLEAR 62 62 100 CALM 30.05S AUGUSTA-BUSH PTCLDY 67 60 78 NE7 29.98R AUGUSTA-DANIEL CLEAR 71 58 63 N7 30.00R SWAINSBORO CLOUDY 66 66 100 CALM 29.99R VIDALIA N/A 70 61 73 CALM 29.98R ALMA CLOUDY 70 61 73 NW5 29.97R WAYCROSS PTCLDY 70 65 83 N3 29.97R JESUP CLOUDY 73 64 73 N3 29.96R BRUNSWICK PTCLDY 73 68 83 CALM 29.95R SAINT SIMONS CLEAR 76 72 87 N6 29.94R $$ SCZ027-028-034-036>038-045-046-048>050-GAZ119-141-301100- ...LAKE AND SUPPLEMENTAL COASTAL OBSERVATIONS... STATION/POSITION TIME TEMP WIND PRES WAVE SWELL AIR SEA DIR/SP/G HT/PER HT/PER/DIR (UTC) (F) (DEG/KT/KT) (MB) (FT/S) (FT/S/D) UPR LAKE MARION NOT AVBL WINYAH BAY 0900 71 320/ 2 1014.0S LAKE MURRAY 0900 69 20/ 2/ 8 1015.6R ACE BASIN NERRS 0900 74 CALM 1014.0S FORT PULASKI 1000 76 310/ 3/ 3 1014.4R SAPELO ISLAND 0900 78 10/ 5 1014.0S $$ ANZ835-935-AMZ111-154-330-350-352-354-374-450-454-472-301100- ...C-MAN AND BUOY OBSERVATIONS... STATION/POSITION TIME TEMP WIND PRES WAVE SWELL AIR SEA DIR/SP/G HT/PER HT/PER/DIR (UTC) (F) (DEG/KT/KT) (MB) (FT/S) (FT/S/D) FOLLY BEACH CMAN 0900 81 90/ 7/ 8 1014.4R BUOY 41004 1000 81 84 70/ 8/ 10 1013.8R 2/ 8 2/ 8 BUOY 41008 1000 82 85 80/ 8/ 10 1013.6R 1/ 8 2/120/ 8 5E ST. MARYS GA 1000 85 N/A 2/ 9 FRYING PAN BUOY NOT AVBL BUOY 41025 1000 VRB 12/ 16 1014.8R 3/ 6 2/ 60/ 6 CAPE LOOKOUT NC 0900 77 50/ 13/ 14 1014.6R BUOY 41002 0857 78 80 280/ 10/ 12 1013.9 6/ 7 5/210/ 7 BUOY 41010 1000 83 84 260/ 10/ 12 1013.6R 3/ 4 2/120/ 9 BUOY 41012 NOT AVBL ST AUGUSTINE FL 1000 74 290/ 8/ 10 1013.9R CAPERS NEARSHORE 0900 81 90/ 8/ 8 N/A FRIPP NEARSHORE NOT AVBL $$

USA.gov is the U.S. government's official web portal to all federal, state and local government web resources and services.